This is the latest recevied weather packets stored in our database for station/object KF4ERV-4. If no packets are shown the sender has not sent any weather packets the latest 1 day(s).
| Time | Temp. | Humidity | Pressure | Rain* | Wind** | Luminosity | Snow |
|---|---|---|---|---|---|---|---|
| 1778052532 | 10° C | 78% | 1009 hPa | 2.54 mm | 0 m/s | - | - |
| 1778052297 | 10° C | 78% | 1009 hPa | 2.54 mm | 0 m/s | - | - |
| 1778052242 | 10° C | 79% | 1008.6 hPa | 2.79 mm | 0 m/s | - | - |
| 1778052203 | 10° C | 79% | 1008.6 hPa | 2.79 mm | 0 m/s | - | - |
| 1778052000 | 10° C | 79% | 1008.6 hPa | 2.79 mm | 0 m/s | - | - |
| 1778051994 | 10° C | 79% | 1008.1 hPa | 3.05 mm | 0 m/s | - | - |
| 1778051953 | 10° C | 79% | 1008.1 hPa | 3.05 mm | 0 m/s | - | - |
| 1778051692 | 10° C | 79% | 1008.1 hPa | 3.05 mm | 0 m/s | - | - |
| 1778051662 | 10° C | 79% | 1008.2 hPa | 2.79 mm | 0 m/s | - | - |
| 1778051395 | 10° C | 79% | 1008.2 hPa | 2.79 mm | 0 m/s | - | - |
| 1778051373 | 10° C | 80% | 1008.2 hPa | 3.05 mm | 0 m/s | - | - |
| 1778051129 | 10° C | 80% | 1008 hPa | 2.79 mm | 0 m/s | - | - |
| 1778051098 | 10° C | 80% | 1008.2 hPa | 3.05 mm | 0 m/s | - | - |
| 1778050792 | 10° C | 80% | 1008 hPa | 2.79 mm | 0 m/s | - | - |
| 1778050492 | 10° C | 80% | 1008 hPa | 2.54 mm | 0 m/s | - | - |
| 1778050258 | 10.56° C | 80% | 1008 hPa | 3.05 mm | 0 m/s | - | - |
| 1778050196 | 10.56° C | 80% | 1008 hPa | 3.05 mm | 0 m/s | - | - |
| 1778049899 | 10.56° C | 80% | 1008 hPa | 3.05 mm | 0 m/s | - | - |
| 1778049642 | 10.56° C | 80% | 1008 hPa | 2.79 mm | 0 m/s | - | - |
| 1778049591 | 10.56° C | 80% | 1008 hPa | 2.79 mm | 0 m/s | - | - |
| 1778049342 | 10.56° C | 80% | 1008 hPa | 2.54 mm | 0 m/s | - | - |
| 1778049294 | 10.56° C | 80% | 1008 hPa | 2.54 mm | 0 m/s | - | - |
| 1778049052 | 10.56° C | 81% | 1008 hPa | 2.54 mm | 0 m/s | - | - |
| 1778048997 | 10.56° C | 81% | 1008 hPa | 2.54 mm | 0 m/s | - | - |
| 1778048968 | 10.56° C | 81% | 1008 hPa | 3.3 mm | 0 m/s | - | - |
* Rain latest hour (hover to see other rain measurements)
** Current wind speed in m/s (hover to see current wind gust speed)